PEGASUS DEB, 24129

Orbit data source: Space-Track

PEGASUS DEB, 24129 is space debris in LEO originally from a launch on Thu, 19 May 1994 UTC launched from the Air Force Western Test Range (AFWTR). Debris objects in space refer to the collection of defunct objects orbiting the Earth. Examples of debris include non-operational satellites, rocket bodies, and fragments generated from explosions, collisions, or faulty payload assembly.

Loading next visibility...
Identifier
24129, 1994-029GC
Orbit
LEO
Country
Flag of USUS
Related business
Manufacturer
Unknown
Mission
Spacecraft
Bus & Motor
Unknown
Mass
Unknown
Launch date (UTC)
1994-05-19 (32 years ago)
Launch vehicle
Unknown
Launch site
Air Force Western Test Range (AFWTR)
Object type
Payload
Rocket body
Debris
Shape & HBR
Unknown shape, 0.2 m
Radar Cross Section
Small (<0.1 m²)

Expand to show TLE details & history
Last TLE update: 14 hours ago

TLE from 14 hours ago
0 PEGASUS DEB
1 24129U 94029GC  26119.66453035  .00004077  00000-0  10072-2 0  9993
2 24129  81.4780 205.7135 0539543 190.5665 295.6725 13.89436020493101
Epoch: 2026-04-29T15:56Z
TLE epoch observation values (Epoch: 2026-04-29T15:56:55.422Z)
Latitude
58.53365°
Longitude
-85.23507°
Altitude
787.479 km
Speed
7.543 km/s
True Right ascension
00h 46m 28s
True Declination
58° 22' 51"
Sunlit
Object was in daylight at epoch
Visualization orbit readout
Latitude
Unknown
Longitude
Unknown
Altitude
Unknown
Speed
Unknown
Apparent Right ascension
Unknown
Apparent Declination
Unknown
Sunlit
N/A
Visualization observer readout
Local Sidereal Time
13:38:11
Azimuth
Unknown
Elevation
Unknown
Doppler factor
Unknown
Orbital elements
Apogee altitude
1,321.972 km
Perigee altitude
533.6 km
Semi-major axis
7,305.923 km
Eccentricity
0.05395
Inclination
81.478°
RAAN
205.7135°
Arg. of periapsis
190.5665°
True anomaly
289.94222°
Mean anomaly
295.6725°
Eccentric anomaly
292.82318°
Mean motion
3.47561 °/min
Orbital period
103.58 mins
BSTAR
0.0010072
Loading maneuver chart data...
Computing Atmospheric mass density...

Documentation

Showing up to 5 results
|